Location: An Tulaigh
(53.1928°N, 8.1647°W)
Time: 03:21:31
(UTC+00:00)

BREEZE-M DEB (TANK) - Pass Details

Date: 15 May 2026
Orbit: 262 x 12018 km, 49.5° (Epoch: 6 June)

Event Time Altitude Azimuth Distance (km) Brightness Sun altitude
Rises 21:11:35 0° 246° (WSW) 3,726 6.9 -6.2°
Reaches altitude 10° 21:15:20 10° 238° (WSW) 1,894 5.2 -6.6°
Maximum altitude 21:18:30 30° 174° (S) 664 2.4 -6.9°
Drops below altitude 10° 21:20:24 10° 107° (ESE) 1,113 3.4 -7.1°
Enters shadow 21:20:43 - 103° (ESE) 1,250 3.6 -7.2°
